Flag for Italy Weather past 2 weeks in Firenze, Italy

Now
84 °F

Sunny.


Feels Like: 83 °F
Forecast: 64 / 87 °F
Wind: 5 mph from North

Location: Florence / Peretola

Current Time: Aug 29, 2014 at 12:45:17 PM

Latest Report: Aug 29, 2014 at 11:50 AM


Visibility: 10 mi

Pressure: 30.01 "Hg

Humidity: 35%

Dew point: 54 °F

Location of FirenzeLocation

Historic Weather in Firenze — Graph

°F

Firenze temperature yesterday

Maximum temperature yesterday: 88 °F (at 1:50 PM)
Minimum temperature yesterday: 64 °F (at 5:50 AM)
Average temperature yesterday: 76 °F

Past Weeks' High & Low Weather Summary

 TemperatureHumidityPressure
High88 °F (Aug 28, 1:50 PM)94% (Aug 15, 6:50 AM)30.07 "Hg (Aug 15, 6:50 AM)
Low54 °F (Aug 18, 5:50 AM)28% (Aug 17, 3:50 PM)29.83 "Hg (Aug 14, 11:20 AM)
Average71 °F67%29.95 "Hg
* Reported Aug 14 11:20 AM — Aug 29 11:20 AM, Firenze, Weather by CustomWeather, © 2014

Note: Actual official high and low records may vary slightly from our data, if they occured in-between our weather recording intervals... More about our weather records

Advertising

Firenze weather history for previous 24 hours

 ConditionsComfort  
Time TempWeatherWind HumidityBarometerVisibility
11:20 AM
Aug 29
82 °FSunny.3 mph42%30.01 "Hg10 mi
10:50 AM81 °FSunny.3 mph45%30.01 "Hg10 mi
10:20 AM79 °FSunny.3 mph48%30.01 "Hg10 mi
9:50 AM77 °FPassing clouds.3 mph51%30.01 "HgN/A
9:20 AM75 °FPassing clouds.3 mph54%30.01 "HgN/A
8:50 AM73 °FPassing clouds.3 mph61%30.04 "HgN/A
8:20 AM72 °FSunny.1 mph69%30.04 "Hg10 mi
7:50 AM68 °FSunny.1 mph78%30.04 "Hg10 mi
7:20 AM66 °FPassing clouds.3 mph78%30.01 "HgN/A
6:50 AM64 °FPassing clouds.3 mph83%30.01 "HgN/A
6:20 AM64 °FClear.3 mph83%30.01 "Hg10 mi
5:50 AM63 °FClear.2 mph88%30.01 "Hg10 mi
5:20 AM66 °FPassing clouds.3 mph78%30.01 "HgN/A
4:50 AM66 °FPassing clouds.5 mph78%30.01 "HgN/A
4:20 AM66 °FClear.1 mph78%30.01 "Hg10 mi
3:50 AM66 °FPassing clouds.3 mph78%30.01 "HgN/A
3:20 AM68 °FClear.2 mph73%30.01 "Hg10 mi
2:50 AM68 °FClear.3 mph78%30.01 "Hg10 mi
2:20 AM68 °FClear.5 mph78%30.01 "Hg10 mi
1:50 AM70 °FClear.6 mph73%30.01 "Hg10 mi
1:20 AM70 °FPassing clouds.3 mph73%30.01 "HgN/A
12:50 AM70 °FClear.5 mph73%30.01 "Hg10 mi
12:20 AM70 °FPassing clouds.3 mph73%30.01 "HgN/A
11:50 PM
Aug 28
72 °FClear.7 mph69%30.01 "Hg10 mi
11:20 PM72 °FClear.2 mph69%30.01 "Hg10 mi
10:50 PM73 °FClear.6 mph65%30.01 "Hg10 mi
10:20 PM73 °FClear.No wind61%30.01 "Hg10 mi
9:50 PM73 °FClear.2 mph61%29.98 "Hg10 mi
9:20 PM72 °FClear.1 mph65%29.98 "Hg10 mi
8:50 PM77 °FPassing clouds.3 mph57%29.98 "HgN/A
8:20 PM77 °FPassing clouds.3 mph57%29.95 "HgN/A
7:50 PM79 °FPassing clouds.7 mph54%29.95 "HgN/A
7:20 PM81 °FPassing clouds.7 mph51%29.95 "HgN/A
6:50 PM82 °FPassing clouds.8 mph48%29.95 "HgN/A
6:20 PM84 °FPassing clouds.8 mph45%29.95 "HgN/A
5:50 PM84 °FPassing clouds.9 mph43%29.95 "HgN/A
5:20 PM86 °FPassing clouds.9 mph38%29.92 "HgN/A
4:50 PM86 °FPassing clouds.10 mph38%29.92 "HgN/A
4:20 PM86 °FPassing clouds.14 mph40%29.92 "HgN/A
3:50 PM86 °FPassing clouds.13 mph38%29.92 "HgN/A
3:20 PM88 °FPassing clouds.12 mph35%29.95 "HgN/A
2:50 PM88 °FPassing clouds.12 mph33%29.95 "HgN/A
2:20 PM88 °FPassing clouds.14 mph38%29.95 "HgN/A
1:50 PM88 °FPassing clouds.12 mph38%29.95 "HgN/A
1:20 PM86 °FPassing clouds.12 mph40%29.95 "HgN/A
12:50 PM86 °FPassing clouds.14 mph40%29.95 "HgN/A
12:20 PM86 °FPassing clouds.10 mph40%29.95 "HgN/A
Weather by CustomWeather, © 2014

See weather overviewHow to use our weather pages